SCP
0 0 0 0 0 0 0 0 0 0 0 0 -0 -0 -0 -0 -0 -0 -0 -0 -0 0 0 0 0 0 0 0 0 0 0 0 0 0 0 0 0 0 0 0 0 0 0 0
0 0 0 0 0 0 0 0 0 0 0 0 -0 -0 -0 -0 -0 -0 0 0 0 0 0 0 0 0 0 0 0 0 0 0 0 0 0 0 0 0 0 0 0 0 0 0
0 0 0 0 0 0 0 0 0 0 0 0 -0 -0 -0 -0 0 0 0 0 0 0 0 0 0 0 0 0 0 0 0 0 0 0 0 0 0 0 0 0 0 0 0 0
0 0 0 0 0 -0 -0 -0 -0 0 0 -0 -0 -0 -0 -0 0 0 0 0 0 0 0 0 0 0 0 0 0 0 0 0 0 0 0 0 0 0 0 0 0 0 0 0
0 0 0 0 0 0 -0 -0 0 0 0 0 -0 -0 -0 -0 0 0 0 0 0 0 0 0 0 0 0 0 0 0 0 0 0 0 0 0 0 0 0 0 0 0 0 0
0 0 0 0 0 0 0 0 0 0 0 0 -0 -0 -0 -0 0 0 0 0 0 0 0 0 0 0 0 0 0 0 0 0 0 0 0 0 0 0 0 0 0 0 0 0
0 0 0 0 0 0 0 0 0 0 0 0 0 -0 -0 -0 -0 0 0 0 0 0 0 0 0 0 0 0 0 0 0 0 0 0 0 0 0 0 0 0 0 0 0 0
0 0 0 0 0 0 0 0 0 0 0 0 0 0 0 -0 -0 0 0 0 0 0 0 0 0 0 0 0 0 0 0 0 0 0 0 0 0 0 0 0 0 0 0 0
0 0 0 0 0 0 0 0 0 -0 0 0 0 0 0 -0 -0 0 0 0 0 0 0 0 0 0 0 0 0 0 0 0 0 0 0 0 0 0 0 0 0 0 0 0
0 0 0 0 0 0 -0 -0 -0 -0 0 0 0 0 0 0 0 0 0 0 0 0 0 0 0 0 0 0 0 0 0 0 0 0 0 0 0 0 0 0 0 0 0 0
0 0 0 0 0 -0 -0 -0 -0 0 0 0 0 0 0 0 0 0 0 0 0 0 0 0 0 0 0 0 0 0 0 0 0 0 0 0 0 0 0 0 0 0 0 0
0 0 0 0 -0 -0 -0 -0 -0 -0 0 0 0 0 0 0 0 0 0 0 0 0 0 0 0 0 0 0 0 0 0 0 0 0 0 0 0 0 0 0 0 0 0 0
0 0 0 0 -0 -0 -0 -0 -0 0 0 0 0 0 0 0 0 0 0 0 0 0 0 0 0 0 0 0 0 0 0 0 0 0 0 0 0 0 0 0 0 0 0 0
0 0 0 0 0 -0 -0 -0 -0 0 0 0 0 0 0 0 0 0 0 0 0 0 0 0 0 0 0 0 0 0 0 0 0 0 0 0 0 0 0 0 0 0 0 0
0 0 0 0 0 -0 0 0 0 0 0 0 0 0 0 0 0 0 0 0 0 0 0 0 0 0 0 0 0 0 0 0 0 0 0 0 0 0 0 0 0 0 0 0
0 0 0 -0 -0 -0 -0 0 0 0 0 0 0 0 0 0 0 0 0 0 0 0 0 0 0 0 0 0 0 0 0 0 0 0 0 0 0 0 0 0 0 0 0 0
0 0 0 -0 -0 -0 -0 0 0 0 0 0 0 0 0 0 0 0 0 0 0 0 0 0 0 0 0 0 0 0 0 0 0 0 0 0 0 0 0 0 0 0 0 0
0 0 0 0 0 -0 -0 0 0 0 0 0 0 0 0 0 0 0 0 0 0 0 0 0 0 0 0 0 0 0 0 0 0 0 0 0 0 0 0 0 0 0 0 0
0 0 0 0 0 0 0 0 0 0 0 0 0 0 0 0 0 0 0 0 0 0 0 0 0 0 0 0 0 0 0 0 0 0 0 0 0 0 0 0 0 0 0 0
0 0 0 0 0 0 0 0 0 0 0 0 0 0 0 0 0 0 0 0 0 0 0 0 0 0 0 0 0 0 0 0 0 0 0 0 0 0 0 0 0 0 0 0
0 0 0 0 0 0 0 0 0 0 0 0 0 0 0 0 0 0 0 0 0 0 0 0 0 0 0 0 0 0 0 0 0 0 0 0 0 0 0 0 0 0 0 0
0 0 0 0 0 0 0 0 0 0 0 0 0 0 0 0 0 0 0 0 0 0 0 0 0 0 0 0 0 0 0 0 0 0 0 0 0 -0 -0 0 0 0 0 0
0 0 0 0 0 0 0 0 0 0 0 0 0 0 0 0 0 0 0 0 0 0 0 0 0 0 0 0 0 0 0 0 0 0 0 0 0 0 0 0 0 0 0 0
0 0 0 0 0 0 0 0 0 0 0 0 0 0 0 0 0 0 0 0 0 0 0 0 0 0 0 0 0 0 0 -0 -0 -0 -0 -0 0 0 0 0 0 0 0 0
0 0 0 0 0 0 -0 -0 -0 -0 -0 0 0 0 0 0 0 0 0 0 0 0 0 0 0 0 0 0 0 0 0 -0 -0 -0 -0 0 0 0 0 0 0 0 0 0
-0 -0 -0 0 0 0 -0 -0 -0 -0 -0 -0 -0 -0 0 0 0 0 0 0 0 0 0 0 0 0 0 0 0 0 -0 -0 -0 -0 0 0 0 0 0 0 0 0 0 0
-0 -0 -0 0 0 0 -0 -0 -0 -0 -0 -0 -0 -0 0 0 0 0 0 0 0 0 0 0 0 0 0 0 0 0 0 0 0 0 0 0 0 0 0 0 0 0 0 0
Wind_Speed
9 8 7 9 11 9 10 10 11 12 14 15 10 9 8 8 8 8 8 7 6 5 4 3 2 3 3 4 6 7 9 11 12 12 11 11 11 12 12 12 12 12 12 11
7 8 9 12 14 14 14 13 15 16 19 11 8 7 8 8 8 8 8 8 7 6 5 4 3 3 3 4 5 7 9 10 9 10 10 11 11 11 11 11 11 11 12 12
6 5 5 11 12 13 11 10 10 15 15 7 7 8 9 8 7 7 8 8 8 7 6 5 4 4 4 5 5 7 8 7 8 9 10 11 11 11 12 12 11 11 11 11
4 2 10 9 4 7 10 12 10 10 9 7 8 10 7 4 5 8 8 8 8 7 7 6 4 3 3 3 4 6 7 7 8 9 10 10 10 11 11 10 10 10 10 10
3 5 9 8 5 4 7 8 6 8 9 8 8 7 5 4 4 6 8 7 7 6 7 6 4 3 2 2 4 5 6 7 8 9 10 11 11 11 10 9 9 9 9 10
4 5 8 6 4 3 2 6 3 4 6 7 5 4 6 6 6 8 9 7 6 6 5 4 4 2 2 3 4 6 7 7 7 8 10 11 11 9 8 8 8 8 8 8
8 8 9 6 4 1 3 6 3 4 5 5 4 6 8 7 7 7 8 8 6 5 5 4 3 2 3 4 5 5 4 5 6 7 9 9 8 8 8 8 8 8 8 7
6 8 11 4 2 4 6 4 4 5 5 6 7 8 7 7 7 7 7 8 7 6 6 5 3 2 3 4 3 2 4 5 6 6 6 7 9 8 9 9 9 8 8 6
9 10 6 4 6 6 4 5 5 5 7 7 7 8 8 7 7 7 7 7 6 6 6 5 3 3 4 4 2 3 4 5 5 6 6 7 9 10 9 9 8 8 8 7
7 9 8 7 6 6 6 7 7 7 7 7 8 8 8 7 6 6 6 6 6 6 6 6 5 4 4 3 3 4 5 5 5 6 6 6 6 7 8 9 8 8 8 8
8 8 7 8 8 8 8 8 8 8 8 8 8 8 8 8 7 7 7 6 5 5 6 7 6 5 4 3 4 4 5 5 5 6 6 6 5 5 7 7 9 10 9 9
10 9 7 8 8 7 8 8 9 9 10 8 7 8 8 8 7 7 7 6 6 6 7 7 6 6 4 4 5 5 5 6 5 5 5 5 6 4 3 5 8 9 10 10
13 10 10 10 9 8 9 9 9 9 10 10 9 8 8 8 7 6 7 7 7 7 7 7 6 6 5 4 5 6 6 6 5 5 6 6 6 7 5 5 7 9 11 12
11 8 9 10 10 9 9 9 9 9 9 8 8 8 7 8 8 8 8 7 7 7 7 6 6 6 5 4 5 5 5 6 6 6 6 6 7 6 7 7 7 4 7 12
10 10 11 9 9 9 8 7 8 9 8 8 7 8 8 8 9 9 7 6 6 7 7 6 6 7 4 4 5 5 5 5 5 5 5 6 6 6 6 7 6 6 6 8
8 8 8 9 10 9 7 7 8 10 9 9 9 8 8 8 8 8 7 5 6 8 8 6 7 6 4 4 5 4 5 7 7 6 6 6 6 7 7 7 7 7 7 8
6 7 7 8 9 9 8 8 9 10 9 9 10 8 8 8 8 8 7 6 7 8 8 7 7 5 4 4 4 4 4 6 8 6 6 7 7 7 7 7 7 7 6 8
7 8 8 8 8 9 9 9 9 9 9 9 9 8 8 8 9 9 7 6 6 7 7 7 6 5 4 4 4 4 4 5 6 6 6 6 6 7 7 7 8 8 6 8
5 6 6 6 7 7 7 8 8 8 8 8 8 8 8 8 8 7 6 6 6 7 7 5 6 5 4 5 5 4 5 6 6 5 6 8 7 6 7 7 8 8 8 7
4 5 5 6 6 6 7 7 7 8 7 7 7 7 8 8 7 6 7 7 6 6 5 5 5 4 4 5 5 4 6 7 7 7 7 7 7 7 7 7 8 8 7 7
5 6 6 6 7 6 6 7 7 8 8 7 7 8 8 8 6 6 6 7 5 5 5 7 4 3 4 4 5 4 5 6 7 7 7 7 7 7 7 7 7 7 7 7
6 6 6 6 7 7 6 6 7 8 8 8 7 7 7 7 6 5 6 6 5 5 4 3 3 5 5 5 4 5 5 6 6 6 7 7 8 8 8 8 7 7 7 7
5 6 6 7 7 8 8 7 7 7 7 8 7 7 7 6 5 4 5 3 3 5 4 3 5 6 6 4 4 5 6 6 6 6 7 7 7 7 7 8 7 7 7 7
5 6 6 6 6 6 7 7 7 6 7 7 6 6 6 5 4 4 4 5 5 4 3 3 5 5 5 2 4 4 5 5 6 6 6 6 6 6 7 7 7 7 7 8
6 6 6 6 6 5 6 7 7 6 6 5 5 5 4 3 4 3 3 3 3 2 2 2 3 4 3 3 4 4 5 5 6 6 6 6 7 7 6 6 7 7 7 7
5 5 5 5 5 5 4 4 5 5 5 5 5 4 3 3 2 2 2 2 1 1 0 0 1 2 3 3 4 4 4 5 6 5 6 6 7 7 7 7 9 7 7 7
5 4 4 4 4 3 3 4 4 5 4 4 5 4 3 3 2 2 1 1 1 1 1 2 2 2 3 4 4 4 4 5 5 5 5 5 5 6 7 8 7 7 7 7
Wind_Direction
252 265 265 263 264 249 233 232 241 256 262 272 288 293 301 306 312 316 320 323 317 302 293 289 271 243 224 212 193 181 180 185 191 190 186 183 183 182 181 181 182 180 179 181
266 256 259 264 261 253 247 242 245 258 267 267 276 287 295 299 306 309 311 313 310 306 299 290 271 252 232 216 198 181 183 189 185 180 179 181 181 178 177 178 177 176 181 182
265 269 283 260 243 238 235 230 230 249 259 284 289 286 284 290 298 299 304 309 308 303 291 281 267 245 231 220 191 181 184 183 178 177 179 180 175 174 179 179 175 178 182 182
264 256 240 246 236 237 248 252 245 258 276 279 275 277 274 278 298 304 307 308 307 305 298 288 276 259 243 207 181 179 179 178 177 177 178 174 174 179 179 175 177 178 180 181
233 249 269 282 267 232 235 256 256 265 281 291 300 297 281 310 312 303 302 299 295 295 296 296 288 272 231 193 177 175 180 182 182 178 176 175 179 181 175 171 175 175 175 176
220 238 251 254 266 264 228 264 287 278 285 297 324 298 287 320 314 311 312 308 304 308 309 303 293 265 209 198 185 192 192 188 181 177 177 179 179 173 165 166 170 164 167 173
226 242 261 259 276 77 210 256 280 272 282 290 259 254 281 298 303 301 303 306 311 313 303 293 287 239 212 202 211 208 186 173 174 178 179 174 165 159 156 154 154 155 156 160
203 227 249 248 169 201 237 265 271 273 275 277 274 281 291 297 299 304 310 315 317 311 304 302 287 237 231 223 222 186 167 168 171 170 164 158 155 154 153 154 155 155 152 152
204 224 244 223 217 240 246 255 259 264 273 278 281 286 293 298 301 304 309 312 314 308 308 303 287 244 240 239 189 169 166 168 164 158 156 157 158 157 155 158 159 160 159 161
243 255 256 257 253 258 253 252 260 265 275 280 278 282 290 293 294 298 301 304 309 311 307 301 292 266 244 229 186 174 174 167 160 157 154 156 157 160 163 167 165 163 164 165
244 260 275 263 248 255 262 264 271 276 275 272 273 278 281 287 289 290 293 296 300 300 294 292 292 283 263 216 183 177 174 166 161 158 157 160 161 169 172 179 176 170 172 168
242 237 236 256 258 259 262 267 272 279 283 276 264 269 277 280 280 284 290 295 299 295 292 292 287 279 261 219 190 179 175 171 168 161 159 160 151 127 116 149 159 164 162 160
244 252 251 262 267 264 263 268 270 270 270 275 273 268 273 277 278 279 284 287 289 291 292 293 284 272 256 219 195 189 186 180 171 166 165 164 160 156 144 115 124 147 155 156
241 248 259 257 260 265 265 269 273 272 267 266 272 274 273 275 277 277 277 279 283 286 288 287 279 273 258 222 199 190 184 183 178 173 169 168 166 163 159 155 150 143 151 156
240 234 244 258 264 266 268 274 278 277 277 276 274 273 272 270 272 274 276 278 284 285 286 281 276 272 257 216 197 189 183 181 174 168 166 163 157 153 152 151 150 145 136 145
251 248 250 258 264 268 270 273 273 276 277 276 277 273 269 266 269 273 274 268 273 280 282 277 273 269 254 217 195 189 187 182 174 166 163 158 157 156 156 156 155 158 160 154
257 262 263 268 270 273 268 266 269 274 277 276 275 273 271 271 272 272 271 266 263 268 269 265 265 260 243 219 196 188 180 174 169 165 168 165 164 164 162 162 163 163 162 162
250 258 262 265 270 276 278 274 272 274 276 279 281 273 266 265 267 269 271 274 270 269 266 261 258 248 236 223 197 182 178 175 172 170 166 167 165 162 159 160 161 157 151 158
281 279 281 281 280 282 284 286 286 282 283 285 281 272 267 265 264 266 269 264 260 267 271 262 256 246 231 217 197 181 177 172 168 164 161 166 164 160 160 161 160 157 155 157
299 294 293 294 292 289 288 291 292 289 287 286 282 279 277 273 268 266 266 260 249 250 261 263 254 237 224 207 197 182 178 175 169 165 163 165 164 162 161 159 157 155 156 158
312 309 306 303 300 296 292 292 296 295 296 291 282 278 277 278 272 265 264 267 262 245 251 254 247 232 218 204 194 181 178 176 171 167 165 163 160 158 158 157 154 155 156 154
311 308 306 306 305 303 301 299 295 294 295 293 287 284 285 284 281 271 257 255 264 258 257 248 239 228 215 202 188 177 173 169 166 162 161 160 159 159 159 157 154 155 155 154
301 299 299 300 299 298 300 298 296 295 294 291 289 286 284 283 280 276 280 273 258 258 258 248 235 220 202 184 173 168 163 161 161 161 159 159 157 157 156 154 152 153 154 153
299 297 295 294 293 293 295 298 299 296 291 289 285 284 285 287 285 273 272 278 277 273 264 240 217 196 179 169 160 157 155 154 154 153 150 148 148 148 149 150 150 149 149 148
298 295 293 294 292 288 291 300 304 301 300 299 300 298 291 275 274 286 288 281 276 280 271 222 186 172 163 147 148 147 147 148 147 144 145 147 148 147 148 149 148 147 148 148
295 293 288 282 279 284 291 297 299 303 307 308 310 314 317 313 302 299 297 294 290 306 324 114 133 135 132 132 131 130 131 136 138 137 139 141 142 144 145 144 143 145 145 143
296 295 297 298 296 293 294 297 298 302 306 304 308 319 325 327 332 338 344 4 39 57 66 73 85 102 114 120 122 124 125 125 126 129 132 135 138 139 141 140 140 138 137 140